{"data":{"norad_id":51635,"intl_designator":"2022-012P","name":"ONEWEB-0439","alt_names":[],"object_type":"PAYLOAD","status":"ACTIVE","operator":null,"country":"UK","launch_date":"2022-02-10","launch_site_code":"FRGUI","launch_vehicle":null,"mission":null,"orbit_class":"UNKNOWN","rcs_meters":null,"size_class":null,"mass_kg":null,"dimensions":null,"purposes":["comms"],"wikipedia_slug":null,"has_3d_model":false,"image_url":null,"decayed_at":null,"tle_current":{"epoch":"2026-05-25T02:56:10.218336Z","epoch_age_seconds":64511,"freshness":"FRESH","line1":"1 51635U 22012P   26145.12234049 -.00000624  00000+0 -18242-2 0  9992","line2":"2 51635  87.8851  40.8603 0001913  77.5889 282.5453 13.10373073206306","mean_motion":13.10373073,"eccentricity":0.0001913,"inclination_deg":87.8851,"raan_deg":40.8603,"arg_perigee_deg":77.5889,"mean_anomaly_deg":282.5453,"bstar":-0.0018242,"rev_number":20630,"period_min":109.89236803403,"perigee_km":1220.2623090412999,"apogee_km":1223.1700128607,"semimajor_km":7599.853160951,"source":"CELESTRAK","updated_at":"2026-05-25T13:38:22.578701Z"}}}